Temp
42 44 45 45 47 48 49 50 52 63 64 65 67 67 67 65 63 61 61 62 61 61 60 60 60 62 61 60 60 61 59 59 55 56 57 58 58 58 58 59 60 61 63
42 42 42 44 44 45 46 47 48 50 63 63 64 65 67 65 63 60 60 61 60 59 59 59 60 63 60 60 59 59 60 61 56 54 55 56 58 59 59 58 59 63 65
42 41 41 41 42 42 43 45 46 47 49 60 62 62 62 62 62 61 60 60 60 60 60 59 61 63 59 59 59 60 60 59 56 54 53 55 57 57 57 58 62 64 64
41 39 39 40 40 40 42 42 43 45 45 46 48 59 61 62 61 61 60 60 59 60 61 60 62 63 62 61 60 60 60 57 56 55 54 53 55 56 57 56 55 60 57
38 38 37 38 40 41 40 40 41 41 43 44 44 44 43 46 42 42 56 59 58 58 58 60 64 62 53 58 59 59 58 56 55 54 54 54 54 53 54 57 56 55 51
36 35 37 38 38 39 39 40 39 39 39 39 39 41 40 41 37 38 41 57 58 57 57 60 64 52 51 47 47 48 56 57 55 55 55 54 55 55 56 55 55 53 47
33 33 34 36 36 36 37 37 38 38 37 36 35 37 36 36 37 38 38 50 57 57 58 59 59 58 53 58 45 41 40 40 43 60 56 56 55 57 56 54 55 54 52
31 30 32 33 34 35 36 35 35 36 35 34 35 35 35 35 35 36 37 39 38 37 37 39 45 54 54 55 48 44 41 40 41 44 51 54 53 54 57 56 54 40 38
28 28 29 31 31 32 32 32 34 35 34 33 33 33 32 33 34 34 37 38 35 33 35 35 36 38 36 40 47 40 35 33 36 36 36 36 35 36 41 48 41 41 35
28 28 29 31 30 30 31 31 33 33 33 35 33 33 33 32 34 34 33 34 33 33 33 33 33 34 35 36 42 40 36 33 32 32 32 31 32 32 32 33 43 44 35
32 30 29 30 30 31 31 32 31 32 32 32 32 32 32 32 32 33 33 30 29 29 29 29 31 33 33 34 34 34 33 32 31 30 29 29 28 27 28 29 30 34 34
31 31 30 29 30 31 30 31 32 31 30 30 30 31 32 32 32 32 32 31 30 27 27 28 29 31 31 31 32 32 32 32 30 28 27 25 25 25 26 27 27 28 29
31 30 31 31 30 30 29 29 30 30 29 29 28 28 29 30 31 31 31 30 30 29 29 28 29 29 29 28 29 29 29 28 27 25 24 23 24 26 27 27 28 28 27
31 30 31 31 31 31 31 30 29 29 28 27 27 27 29 29 29 29 30 31 29 29 28 27 27 27 27 27 27 27 27 26 25 24 23 24 25 25 24 26 25 26 25
31 30 29 31 30 30 30 27 27 27 27 26 26 26 25 26 27 29 28 28 28 27 28 27 26 26 25 25 25 26 27 27 26 26 26 25 25 25 25 26 26 26 24
28 27 26 28 28 28 28 29 27 27 27 27 27 26 27 27 28 29 27 27 27 27 26 23 23 24 23 24 23 24 24 25 26 26 25 25 24 24 24 25 27 26 24
25 25 26 26 26 24 24 24 22 26 25 24 25 24 26 26 26 26 26 25 25 26 23 22 21 22 22 23 24 24 22 23 24 24 25 24 24 24 24 24 24 24 24
22 20 23 22 22 22 22 22 22 20 19 20 22 22 22 23 23 23 23 25 23 23 22 20 20 21 22 22 22 23 24 24 22 23 23 23 24 24 23 24 24 24 24
22 22 22 22 22 20 22 22 22 21 20 19 20 20 19 20 20 19 20 19 18 18 19 19 19 20 20 20 20 21 20 20 22 22 23 23 24 24 23 23 22 22 24
21 18 18 21 21 21 21 21 20 20 19 18 16 16 18 18 16 15 16 16 16 16 17 17 17 17 17 18 18 19 20 20 21 22 21 22 22 24 22 22 22 22 23
20 20 16 21 20 20 20 20 19 19 18 17 15 13 10 15 14 13 13 13 14 14 13 14 14 13 14 15 16 16 16 17 18 19 21 21 21 20 21 21 21 21 22
18 18 19 18 19 18 17 19 18 18 17 16 16 15 10 15 14 13 12 11 11 13 13 12 11 11 10 10 11 13 13 12 13 16 18 18 20 20 20 20 20 19 20
17 16 17 17 17 15 16 16 16 17 16 15 15 15 14 13 12 12 11 10 11 10 10 11 10 9 9 8 9 10 9 9 9 10 14 17 18 19 19 18 17 17 17
15 15 15 15 15 15 15 15 14 13 14 14 13 13 13 12 11 11 10 11 10 10 9 8 8 6 7 7 8 9 9 8 9 10 10 15 17 17 17 16 15 14 15
14 14 13 13 12 12 12 13 13 13 13 13 13 13 13 13 12 11 11 10 9 10 9 8 8 7 5 4 4 4 3 2 3 3 12 13 12 12 13 14 14 14 12
14 13 13 13 12 12 12 11 12 12 11 12 12 11 11 11 11 11 11 10 9 9 7 9 7 5 5 7 6 3 2 1 3 -1 8 13 13 13 13 11 10 13 12
MSLP
1011.15 1011.73 1011.95 1011.09 1010.27 1009.67 1008.88 1008.09 1007.11 1005.62 1005.18 1005.36 1005.28 1005.50 1005.81 1006.26 1006.20 1006.99 1007.59 1007.81 1008.11 1008.70 1009.22 1009.49 1009.91 1010.45 1010.82 1011.32 1011.80 1012.03 1012.22 1012.41 1012.49 1012.67 1012.80 1012.78 1013.13 1013.57 1014.38 1014.97 1015.31 1015.74 1015.88
1012.58 1012.26 1011.68 1011.14 1010.60 1010.09 1009.38 1008.49 1007.61 1006.45 1004.86 1004.92 1005.06 1005.19 1005.40 1005.69 1005.97 1006.38 1006.78 1007.05 1007.31 1007.72 1008.13 1008.65 1009.06 1009.58 1010.10 1010.48 1011.10 1011.21 1011.50 1011.74 1012.13 1012.20 1012.31 1012.51 1012.66 1013.22 1013.87 1014.57 1014.90 1015.12 1015.28
1013.78 1013.07 1012.50 1012.14 1011.70 1011.11 1010.15 1009.17 1008.26 1007.22 1006.36 1005.15 1004.83 1004.89 1004.93 1005.06 1005.38 1005.59 1005.81 1006.06 1006.47 1006.76 1007.11 1007.59 1008.13 1008.74 1009.13 1009.58 1010.15 1010.53 1010.75 1011.15 1011.48 1011.64 1011.94 1012.01 1012.53 1013.12 1013.73 1014.03 1014.09 1014.32 1014.73
1014.10 1013.63 1013.28 1012.91 1012.42 1011.77 1011.17 1010.30 1009.44 1008.63 1007.77 1007.20 1006.60 1005.37 1005.05 1005.06 1005.24 1005.30 1005.48 1005.57 1005.81 1005.94 1006.20 1006.71 1007.23 1007.80 1008.18 1008.58 1009.14 1009.61 1010.07 1010.44 1010.84 1011.15 1011.41 1011.66 1012.10 1012.63 1013.01 1013.28 1013.64 1013.84 1014.52
1015.42 1014.85 1014.52 1014.21 1013.50 1012.78 1012.08 1011.36 1010.85 1010.00 1009.60 1008.95 1008.24 1007.64 1007.39 1007.10 1007.57 1007.09 1005.61 1005.23 1005.52 1005.61 1005.66 1005.85 1006.18 1006.81 1007.33 1007.65 1008.20 1008.72 1009.19 1009.75 1010.11 1010.52 1010.66 1011.09 1011.45 1011.91 1012.08 1012.28 1012.86 1013.46 1014.29
1016.71 1016.41 1015.96 1015.40 1014.76 1014.11 1013.41 1012.53 1012.19 1011.42 1010.97 1010.27 1009.86 1009.51 1009.25 1008.97 1008.32 1007.23 1006.53 1005.16 1004.90 1005.11 1005.13 1005.13 1005.48 1006.02 1006.53 1007.21 1007.52 1007.87 1008.28 1008.82 1009.24 1009.58 1009.99 1010.21 1010.44 1010.77 1011.17 1011.67 1012.33 1013.12 1014.20
1017.88 1017.57 1017.10 1016.49 1015.85 1015.34 1014.89 1014.22 1013.39 1013.02 1012.61 1011.99 1011.73 1010.64 1010.53 1009.83 1008.55 1007.48 1006.01 1005.54 1004.84 1004.69 1004.01 1004.61 1005.19 1005.66 1006.14 1006.54 1007.17 1007.66 1007.99 1008.19 1008.37 1008.57 1009.04 1009.29 1009.61 1009.71 1010.43 1010.85 1011.26 1011.97 1012.70
1019.49 1019.05 1018.53 1017.85 1017.23 1016.61 1016.10 1015.56 1014.99 1014.40 1013.92 1013.48 1012.99 1012.54 1011.88 1011.12 1009.97 1008.48 1007.65 1006.84 1006.56 1006.84 1005.85 1006.15 1006.26 1005.78 1006.01 1006.08 1006.88 1007.66 1008.43 1008.76 1008.87 1008.71 1008.60 1008.95 1009.31 1009.75 1009.82 1009.88 1010.66 1012.29 1013.45
1020.87 1020.38 1019.87 1019.21 1018.55 1017.88 1017.33 1016.96 1016.44 1015.94 1015.55 1015.06 1014.51 1013.69 1013.18 1012.50 1011.44 1009.91 1008.97 1008.25 1008.22 1009.06 1008.06 1007.91 1007.76 1007.69 1007.25 1006.63 1006.23 1007.51 1008.65 1009.44 1009.77 1009.60 1009.74 1010.05 1010.17 1010.31 1010.37 1010.57 1011.30 1012.23 1013.76
1021.96 1021.65 1021.14 1020.40 1019.85 1019.32 1018.76 1018.34 1017.98 1017.22 1016.76 1016.19 1015.75 1015.24 1014.74 1014.07 1013.29 1012.40 1011.27 1010.32 1009.95 1009.54 1009.87 1009.51 1008.98 1008.81 1007.96 1007.42 1006.67 1007.15 1008.14 1009.26 1009.76 1010.14 1010.55 1010.83 1010.86 1011.10 1011.13 1011.03 1010.69 1011.47 1012.72
1023.17 1022.61 1021.87 1021.35 1020.87 1020.46 1019.75 1019.23 1018.98 1018.34 1017.61 1017.08 1016.68 1016.27 1015.64 1015.17 1014.66 1013.71 1012.76 1011.96 1011.99 1011.51 1010.75 1011.52 1010.94 1009.80 1009.08 1008.63 1007.69 1008.00 1008.64 1009.59 1010.19 1010.71 1010.92 1011.62 1012.00 1012.13 1012.25 1012.51 1012.29 1012.12 1012.34
1024.07 1023.30 1022.77 1022.71 1022.27 1021.85 1021.30 1020.66 1020.16 1019.58 1018.89 1018.17 1017.82 1017.28 1016.87 1016.35 1015.87 1015.16 1014.39 1013.97 1013.69 1013.29 1013.21 1013.15 1012.28 1011.13 1010.91 1010.44 1009.59 1010.09 1009.84 1010.04 1010.64 1011.18 1011.79 1012.05 1012.89 1013.03 1013.25 1013.32 1013.50 1013.48 1013.35
1024.54 1024.21 1024.07 1023.54 1023.12 1022.94 1022.29 1021.69 1021.05 1020.62 1020.24 1019.69 1019.16 1018.74 1018.17 1017.59 1017.17 1016.54 1015.98 1015.56 1015.08 1014.80 1014.68 1014.37 1013.42 1012.70 1012.44 1011.97 1010.95 1011.58 1011.33 1011.45 1011.87 1011.89 1012.83 1013.53 1013.84 1013.95 1013.85 1014.00 1013.92 1014.40 1014.52
1025.47 1025.32 1024.62 1024.33 1024.05 1023.68 1023.31 1022.90 1022.52 1022.00 1021.49 1021.21 1020.60 1020.19 1019.73 1019.14 1018.54 1017.83 1016.89 1016.37 1016.07 1015.69 1015.30 1015.08 1014.76 1014.52 1014.06 1013.41 1013.19 1013.32 1012.94 1013.20 1013.14 1013.82 1014.01 1014.17 1014.58 1014.66 1014.51 1015.07 1014.68 1014.96 1015.34
1026.71 1026.12 1025.75 1025.46 1025.00 1024.49 1024.39 1024.27 1023.72 1023.54 1023.07 1022.54 1022.16 1021.72 1021.12 1020.35 1020.00 1019.48 1018.69 1017.90 1017.37 1017.12 1016.54 1016.31 1015.97 1015.84 1015.61 1015.14 1014.86 1014.63 1014.50 1014.51 1014.76 1014.86 1015.08 1015.07 1015.11 1015.40 1015.69 1015.83 1015.82 1015.84 1016.25
1027.42 1027.08 1026.87 1026.38 1026.12 1025.78 1025.35 1024.81 1024.82 1024.44 1024.02 1023.69 1023.33 1022.76 1022.40 1022.02 1021.25 1020.48 1019.95 1019.32 1018.73 1018.21 1017.73 1017.80 1017.68 1017.43 1017.19 1016.93 1016.57 1016.35 1016.18 1016.03 1016.30 1016.23 1016.23 1016.24 1016.39 1016.60 1016.64 1016.89 1017.07 1017.00 1017.34
1028.49 1028.15 1027.69 1027.31 1026.93 1026.61 1026.15 1025.74 1025.22 1024.78 1024.61 1024.41 1024.06 1023.79 1023.14 1022.82 1022.19 1021.54 1021.02 1020.56 1019.99 1019.28 1019.13 1019.34 1019.34 1019.10 1018.78 1018.41 1018.12 1017.85 1017.75 1017.79 1017.71 1017.31 1017.31 1017.18 1017.44 1017.71 1017.73 1017.84 1018.05 1018.17 1018.49
1029.41 1029.13 1028.65 1028.33 1028.00 1027.58 1027.18 1026.75 1026.38 1025.82 1025.24 1024.99 1024.88 1024.74 1024.40 1023.84 1023.40 1022.78 1022.07 1021.40 1020.99 1020.98 1021.01 1020.95 1020.79 1020.47 1020.16 1019.85 1019.58 1019.43 1019.29 1019.03 1018.79 1018.64 1018.46 1018.37 1018.32 1018.40 1018.53 1018.64 1018.88 1019.06 1019.40
1030.06 1029.62 1029.34 1028.95 1028.63 1028.41 1027.91 1027.51 1027.16 1026.70 1026.34 1026.05 1025.75 1025.45 1025.41 1024.98 1024.57 1024.23 1023.80 1023.25 1022.96 1022.69 1022.48 1022.36 1022.34 1022.04 1021.80 1021.38 1021.27 1020.99 1020.64 1020.43 1020.08 1019.75 1019.57 1019.38 1019.45 1019.57 1019.66 1019.64 1019.78 1019.82 1020.02
1030.74 1030.44 1029.97 1029.47 1029.08 1028.69 1028.43 1028.06 1027.73 1027.42 1027.14 1026.94 1026.85 1026.74 1026.26 1025.72 1025.42 1025.33 1025.24 1025.07 1024.73 1024.50 1024.24 1024.01 1023.85 1023.54 1023.23 1022.85 1022.45 1022.02 1021.50 1021.31 1021.09 1020.73 1020.73 1020.60 1020.51 1020.45 1020.48 1020.62 1020.57 1020.57 1020.55
1031.19 1030.69 1030.49 1029.93 1029.66 1029.34 1028.94 1028.64 1028.39 1028.13 1027.90 1027.74 1027.84 1027.95 1027.66 1026.93 1026.80 1026.79 1026.63 1026.48 1026.18 1025.90 1025.65 1025.28 1025.08 1024.90 1024.61 1024.23 1023.77 1023.35 1023.05 1022.83 1022.61 1022.21 1021.76 1021.59 1021.63 1021.46 1021.52 1021.56 1021.52 1021.44 1021.56
1031.73 1031.27 1030.82 1030.51 1030.16 1029.91 1029.63 1029.26 1029.02 1028.72 1028.52 1028.36 1028.25 1028.30 1028.28 1027.88 1027.71 1027.65 1027.66 1027.62 1027.47 1027.18 1026.89 1026.56 1026.22 1026.12 1025.96 1025.59 1025.17 1024.69 1024.39 1024.12 1023.84 1023.39 1022.96 1022.78 1022.53 1022.47 1022.47 1022.47 1022.34 1022.31 1022.50
1032.19 1031.82 1031.34 1030.99 1030.70 1030.43 1030.09 1029.89 1029.57 1029.22 1029.01 1029.00 1028.92 1028.72 1028.62 1028.61 1028.50 1028.41 1028.39 1028.41 1028.25 1028.09 1027.89 1027.49 1027.25 1027.06 1026.96 1026.77 1026.39 1026.04 1025.71 1025.57 1025.37 1025.05 1024.30 1023.71 1023.43 1023.35 1023.36 1023.30 1023.29 1023.33 1023.39
1032.50 1032.17 1031.83 1031.52 1031.28 1030.93 1030.62 1030.30 1030.12 1029.92 1029.72 1029.45 1029.37 1029.21 1029.15 1029.14 1029.01 1028.92 1028.92 1028.84 1028.63 1028.49 1028.46 1028.28 1028.12 1027.99 1027.64 1027.37 1027.12 1026.85 1026.65 1026.55 1026.17 1025.72 1025.38 1024.56 1024.25 1024.18 1024.08 1024.06 1024.07 1024.18 1024.11
1032.73 1032.48 1032.22 1031.96 1031.71 1031.42 1031.09 1030.77 1030.45 1030.26 1030.04 1029.88 1029.67 1029.47 1029.30 1029.27 1029.12 1029.10 1029.18 1029.13 1028.99 1028.71 1028.66 1028.62 1028.51 1028.40 1028.31 1028.17 1027.98 1027.74 1027.63 1027.37 1026.94 1026.62 1025.76 1025.35 1025.12 1024.88 1024.75 1024.66 1024.67 1024.75 1024.95
1032.75 1032.56 1032.35 1032.14 1031.85 1031.66 1031.39 1031.09 1030.80 1030.57 1030.33 1030.11 1029.95 1029.80 1029.62 1029.45 1029.30 1029.14 1029.14 1029.11 1028.99 1028.89 1028.91 1028.84 1028.77 1028.75 1028.54 1028.25 1028.18 1028.15 1027.96 1027.69 1027.30 1027.14 1026.48 1025.80 1025.55 1025.56 1025.51 1025.48 1025.45 1025.29 1025.50
Wind_Speed
16 13 12 12 13 11 10 12 12 13 8 10 12 13 14 11 11 11 12 12 14 13 12 12 12 11 8 7 7 8 8 8 8 4 3 7 9 8 6 6 5 8 9
15 15 15 15 15 14 13 14 14 15 7 9 9 11 13 13 11 13 14 12 15 15 14 13 12 10 11 10 8 11 10 9 7 7 3 4 7 10 9 10 10 9 11
14 14 15 16 15 15 15 15 15 15 16 7 6 8 10 11 11 13 15 15 15 15 14 14 13 15 12 9 10 10 8 6 7 3 4 2 3 5 7 9 12 13 9
18 17 17 17 17 16 16 16 16 15 16 15 16 8 7 7 9 12 13 14 14 14 15 15 14 16 16 14 12 11 10 8 8 6 4 3 3 4 7 8 7 7 6
18 18 18 16 16 16 17 17 16 17 16 15 15 15 16 14 12 12 11 13 12 13 13 13 15 17 16 13 9 11 11 9 7 8 6 5 6 4 10 6 7 6 3
19 19 18 18 17 18 17 18 17 18 17 17 18 16 15 10 22 18 10 10 14 14 13 14 15 14 15 16 16 13 13 11 11 8 8 8 11 9 7 8 7 6 4
19 18 19 18 18 18 17 17 19 18 16 17 17 17 17 18 28 23 19 5 8 12 13 10 10 8 13 13 12 7 5 4 7 13 11 11 10 12 10 10 12 10 6
19 18 18 17 17 17 18 17 16 15 17 16 17 17 16 18 31 26 17 13 12 12 14 11 7 3 8 10 8 6 5 3 2 0 4 5 3 4 9 8 7 6 5
17 17 17 17 17 17 17 16 15 14 14 13 13 17 18 19 33 33 17 11 13 11 12 14 11 9 13 7 11 10 7 5 10 16 16 15 13 10 3 5 4 7 2
16 16 16 16 16 16 15 15 13 11 12 11 13 15 22 16 30 30 22 8 10 9 9 14 23 14 14 11 2 8 11 7 8 6 5 9 11 11 14 6 2 8 4
14 13 15 16 15 15 15 14 14 13 12 14 14 14 18 20 20 31 31 14 11 10 11 10 10 23 23 18 12 4 6 9 9 7 7 6 7 8 8 7 8 3 3
14 15 15 14 13 12 14 13 14 15 15 15 15 14 13 16 26 26 28 25 19 10 10 8 11 24 26 25 16 16 14 10 6 8 7 8 7 8 8 8 10 9 9
15 15 14 14 13 12 13 14 12 13 12 12 11 11 12 13 14 25 24 22 20 11 9 14 21 22 22 16 28 21 13 8 6 9 9 8 7 6 7 6 9 10 13
15 14 13 13 13 12 10 10 11 11 11 11 12 11 11 11 12 13 12 11 15 11 12 10 12 13 15 13 13 12 10 9 8 8 8 7 6 7 8 6 5 6 10
12 12 13 11 12 11 10 10 10 11 12 11 10 10 11 11 12 17 16 11 10 10 8 8 9 9 10 10 9 10 9 9 8 8 8 8 8 8 8 6 7 8 8
11 10 10 9 9 9 8 7 14 15 19 21 20 14 10 18 20 19 20 20 19 16 9 9 9 9 10 10 9 9 9 10 8 8 8 8 8 8 8 8 8 8 9
11 11 9 9 8 9 8 8 8 9 14 19 22 22 21 20 22 20 16 17 21 14 10 9 9 9 9 9 9 9 9 8 7 7 7 7 7 7 8 7 7 7 8
9 10 7 7 7 7 7 7 7 8 9 9 14 17 20 20 21 22 18 11 10 12 9 9 9 8 8 8 8 8 7 7 7 7 7 6 6 6 6 7 7 7 7
8 8 7 7 6 5 6 6 6 7 8 8 8 11 14 17 18 20 20 10 9 9 8 8 8 8 7 7 7 6 7 7 7 6 6 6 6 6 6 6 7 8 7
7 9 7 6 6 6 6 6 7 7 7 8 8 9 9 10 10 10 10 9 8 8 7 7 7 7 7 7 7 6 6 7 7 6 6 6 6 6 6 6 5 5 6
6 7 8 6 6 6 5 6 6 6 6 6 6 7 9 8 8 8 8 8 8 7 7 7 7 7 7 7 7 6 6 6 6 6 6 6 6 6 6 6 6 6 5
6 7 7 7 6 6 6 5 5 5 5 6 5 6 8 7 7 7 7 7 7 6 6 6 6 7 7 7 7 6 6 6 7 6 6 5 5 5 5 5 5 5 5
6 7 7 6 6 7 6 5 5 6 5 5 5 5 5 5 5 6 6 6 6 5 6 6 6 5 6 6 6 6 6 6 5 5 5 4 4 5 4 5 5 5 5
6 6 7 6 6 6 7 6 5 6 6 5 5 4 4 4 5 5 4 4 5 4 4 5 5 7 6 6 6 5 5 5 4 4 5 4 3 3 4 4 5 5 5
5 5 5 5 5 5 6 7 6 6 6 5 5 5 5 4 4 4 4 3 3 4 4 4 4 6 7 8 8 8 8 8 7 6 4 5 5 6 4 4 4 4 5
5 4 4 4 5 5 5 6 6 6 6 6 5 5 5 4 4 4 3 3 3 3 3 2 4 6 7 7 8 8 8 8 7 8 5 3 3 3 3 4 4 3 4
Wind_Direction
23 23 15 12 5 354 348 341 324 286 230 230 224 221 217 209 187 192 206 206 201 200 197 196 201 199 202 200 212 223 221 217 233 196 186 176 169 166 172 194 202 215 220
19 16 15 13 10 3 358 353 345 343 235 228 228 224 223 215 200 201 209 207 204 199 196 196 204 204 208 198 208 215 217 211 214 202 171 160 190 188 192 208 218 225 229
26 28 26 20 14 7 3 2 1 357 0 321 220 227 225 220 214 211 212 210 207 207 195 195 200 207 205 198 207 211 209 202 203 180 170 154 161 175 199 214 221 221 228
25 24 21 16 15 13 9 11 10 9 12 3 4 317 248 251 231 226 222 217 211 212 199 197 199 211 209 202 203 209 211 202 196 198 167 155 179 168 198 200 202 205 165
26 25 20 12 13 16 17 17 15 22 19 18 19 20 19 34 13 340 274 214 215 212 199 198 203 207 209 208 197 201 196 197 195 203 201 181 185 174 199 190 205 188 136
28 24 18 17 15 15 14 20 19 24 21 23 21 20 23 10 351 348 334 248 207 206 201 200 208 193 195 198 201 201 199 201 203 200 207 208 205 206 191 194 192 182 189
25 21 17 17 17 15 14 16 21 23 22 29 23 19 19 8 1 358 352 333 254 222 197 196 201 201 198 204 209 166 130 150 222 215 211 211 210 206 193 201 206 210 201
24 22 16 16 16 16 17 17 17 19 23 23 24 21 21 16 9 8 12 37 40 25 28 20 360 244 204 195 161 145 113 66 332 139 212 184 208 183 202 198 191 104 72
22 21 17 17 17 17 18 12 13 19 19 22 23 23 20 19 16 15 13 34 50 21 32 29 23 6 358 339 158 150 123 92 74 84 86 82 74 56 40 132 141 143 130
19 18 18 23 23 18 17 15 9 17 20 19 26 27 26 23 22 24 24 15 30 45 17 27 26 17 13 12 125 166 160 163 142 114 74 51 50 42 35 22 160 170 125
17 19 24 20 22 19 21 23 16 15 21 24 23 23 25 24 22 27 29 30 24 27 30 18 15 33 35 31 54 71 93 102 90 82 83 67 51 46 39 24 20 15 115
21 22 24 23 23 22 24 22 26 22 23 24 20 19 18 18 20 20 27 33 26 34 30 17 17 36 40 42 49 53 79 95 97 82 65 59 59 52 49 51 45 46 43
25 25 24 25 28 22 25 26 26 26 24 22 22 17 13 14 13 15 18 23 28 33 31 31 33 38 38 32 46 40 43 58 65 81 84 66 54 52 61 51 57 52 55
26 21 20 21 18 25 29 30 31 26 27 25 21 16 12 12 11 8 12 12 19 23 21 21 28 32 41 47 44 39 48 48 65 70 71 74 65 58 56 35 48 63 58
22 22 19 16 16 18 29 27 33 36 33 26 23 21 9 10 11 17 16 16 18 27 31 31 30 29 31 35 41 41 43 52 54 61 63 67 67 63 59 53 58 70 81
23 19 18 15 12 12 12 21 44 40 37 38 30 30 21 20 14 20 26 30 35 34 47 40 35 34 38 36 38 43 41 48 51 58 61 63 66 68 71 67 72 78 86
22 16 12 14 13 13 14 16 13 25 37 35 31 23 24 22 20 21 30 38 37 41 48 43 39 35 35 37 38 41 43 36 39 54 62 69 71 69 72 75 75 79 80
12 19 13 10 8 12 14 17 16 18 17 17 23 23 19 22 23 25 20 31 38 41 41 38 38 35 34 36 36 36 39 42 46 47 55 58 69 78 82 80 78 89 95
12 12 3 6 13 7 13 21 19 22 22 21 15 22 17 15 24 26 26 34 29 31 30 36 31 30 30 35 36 42 45 45 42 52 55 66 71 84 84 89 88 85 96
9 10 8 10 9 11 12 14 16 19 23 25 24 16 6 17 22 21 25 23 25 26 24 28 24 25 24 21 26 24 41 41 44 51 55 60 64 73 79 77 77 86 85
6 8 4 11 12 5 7 14 11 17 21 28 31 22 16 28 28 26 22 22 19 20 17 18 20 23 19 22 25 32 37 40 35 40 50 60 58 72 72 75 79 78 88
9 5 6 10 5 9 3 10 10 13 18 20 21 31 16 31 29 28 29 24 21 18 17 19 27 26 20 16 13 18 32 34 29 24 39 46 59 67 70 74 77 77 81
11 7 7 10 4 6 10 8 2 3 9 15 10 14 17 21 21 23 22 18 22 24 22 27 29 28 26 23 21 20 21 23 12 359 9 36 53 66 64 72 73 75 73
8 5 5 7 12 4 5 3 359 2 360 3 359 0 6 8 6 8 9 11 17 28 29 32 35 29 21 20 21 23 24 10 356 6 352 19 62 71 73 74 73 72 79
4 1 7 1 1 358 351 355 353 355 354 356 351 347 344 342 351 359 358 353 3 10 26 19 17 25 31 29 27 22 16 15 13 347 5 32 55 62 61 72 67 80 68
356 349 343 341 344 347 347 345 343 339 337 340 343 340 339 334 333 337 353 343 343 354 350 15 22 22 15 29 28 26 17 15 11 7 346 23 45 57 60 69 70 86 81